When you browse on this site, cookies collect data to enhance your experience and personalize the content and advertising you see.
Visit our Privacy Policy to learn more. By continuing to use the site, you agree to this use of cookies and data.
  • In Austria
  • List of Countries
  • For 7 days
  • Water Temperature
  • Satellite Maps
  • Weather Map
  • News
  • Weather Widgets
  • user-avatar
    Login

    Hourly Weather Rohan'

    Today, 19 May, Sunday

    Time Temperature Precipitation Wind Pressure Humidity
    00:00 +14°C° 0 mm 4 mps 748 mmHg 72%
    01:00 +14°C° 0 mm 4 mps 748 mmHg 72%
    02:00 +13°C° 0 mm 3 mps 748 mmHg 68%
    03:00 +13°C° 0 mm 3 mps 748 mmHg 69%
    04:00 +13°C° 0 mm 3 mps 748 mmHg 69%
    05:00 +13°C° 0 mm 3 mps 748 mmHg 70%
    06:00 +16°C° 0 mm 3 mps 748 mmHg 65%
    07:00 +18°C° 0 mm 4 mps 748 mmHg 61%
    08:00 +20°C° 0 mm 4 mps 748 mmHg 55%
    09:00 +21°C° 0 mm 4 mps 749 mmHg 52%
    10:00 +22°C° 0 mm 4 mps 749 mmHg 50%
    11:00 +23°C° 0 mm 4 mps 749 mmHg 48%
    12:00 +23°C° 0 mm 4 mps 749 mmHg 48%
    13:00 +25°C° 0 mm 4 mps 749 mmHg 48%
    14:00 +25°C° 0 mm 4 mps 749 mmHg 48%
    15:00 +25°C° 0 mm 4 mps 749 mmHg 51%
    16:00 +23°C° 0 mm 4 mps 749 mmHg 54%
    17:00 +23°C° 0 mm 4 mps 749 mmHg 57%
    18:00 +21°C° 0 mm 3 mps 749 mmHg 61%
    19:00 +20°C° 0 mm 3 mps 749 mmHg 65%
    20:00 +18°C° 0 mm 3 mps 750 mmHg 68%
    21:00 +17°C° 0 mm 3 mps 750 mmHg 68%
    22:00 +17°C° 0 mm 3 mps 750 mmHg 67%
    23:00 +16°C° 0 mm 3 mps 750 mmHg 67%

    Tomorrow, 20 May, Monday

    Time Temperature Precipitation Wind Pressure Humidity
    00:00 +14°C° 0 mm 3 mps 751 mmHg 69%
    01:00 +14°C° 0 mm 3 mps 751 mmHg 71%
    02:00 +13°C° 0 mm 3 mps 751 mmHg 73%
    03:00 +13°C° 0 mm 3 mps 751 mmHg 76%
    04:00 +13°C° 0 mm 3 mps 751 mmHg 78%
    05:00 +13°C° 0 mm 3 mps 752 mmHg 81%
    06:00 +15°C° 0 mm 4 mps 752 mmHg 75%
    07:00 +17°C° 0 mm 4 mps 752 mmHg 69%
    08:00 +19°C° 0 mm 4 mps 753 mmHg 64%
    09:00 +20°C° 0 mm 4 mps 753 mmHg 59%
    10:00 +21°C° 0 mm 4 mps 753 mmHg 54%
    11:00 +22°C° 0 mm 4 mps 753 mmHg 49%
    12:00 +22°C° 0 mm 4 mps 753 mmHg 48%
    13:00 +23°C° 0 mm 4 mps 753 mmHg 47%
    14:00 +23°C° 0 mm 4 mps 753 mmHg 46%
    15:00 +23°C° 0 mm 4 mps 752 mmHg 49%
    16:00 +22°C° 0 mm 4 mps 752 mmHg 52%
    17:00 +22°C° 0 mm 4 mps 752 mmHg 54%
    18:00 +20°C° 0 mm 4 mps 752 mmHg 58%
    19:00 +18°C° 0 mm 4 mps 752 mmHg 61%
    20:00 +15°C° 0 mm 4 mps 752 mmHg 64%
    21:00 +15°C° 0 mm 4 mps 753 mmHg 65%
    22:00 +14°C° 0 mm 4 mps 753 mmHg 65%
    23:00 +13°C° 0 mm 4 mps 753 mmHg 66%

    Day after tomorrow, 21 May, Tuesday

    Time Temperature Precipitation Wind Pressure Humidity
    00:00 +13°C° 0 mm 4 mps 753 mmHg 67%
    01:00 +12°C° 0 mm 4 mps 753 mmHg 68%
    02:00 +12°C° 0 mm 4 mps 753 mmHg 69%
    03:00 +11°C° 0 mm 3 mps 753 mmHg 70%
    04:00 +11°C° 0 mm 3 mps 753 mmHg 71%
    05:00 +11°C° 0 mm 3 mps 753 mmHg 73%
    06:00 +13°C° 0 mm 4 mps 753 mmHg 69%
    07:00 +15°C° 0 mm 4 mps 753 mmHg 66%
    08:00 +17°C° 0 mm 5 mps 753 mmHg 62%
    09:00 +19°C° 0 mm 5 mps 753 mmHg 59%
    10:00 +21°C° 0 mm 5 mps 753 mmHg 56%
    11:00 +22°C° 0 mm 5 mps 753 mmHg 52%
    12:00 +23°C° 0 mm 5 mps 752 mmHg 51%
    13:00 +23°C° 0 mm 5 mps 752 mmHg 50%
    14:00 +25°C° 0 mm 5 mps 752 mmHg 49%
    15:00 +25°C° 0 mm 4 mps 751 mmHg 52%
    16:00 +23°C° 0 mm 4 mps 751 mmHg 54%
    17:00 +23°C° 0 mm 4 mps 750 mmHg 57%
    18:00 +22°C° 0 mm 3 mps 750 mmHg 61%
    19:00 +20°C° 0 mm 3 mps 750 mmHg 65%
    20:00 +18°C° 0 mm 3 mps 750 mmHg 69%
    21:00 +18°C° 0 mm 3 mps 750 mmHg 69%
    22:00 +17°C° 0 mm 3 mps 750 mmHg 70%
    23:00 +17°C° 0 mm 3 mps 750 mmHg 70%

    22 May, Wednesday

    Time Temperature Precipitation Wind Pressure Humidity
    00:00 +16°C° 0 mm 3 mps 750 mmHg 70%
    01:00 +16°C° 0 mm 3 mps 749 mmHg 71%
    02:00 +14°C° 0 mm 3 mps 749 mmHg 71%
    03:00 +14°C° 0 mm 3 mps 749 mmHg 72%
    04:00 +16°C° 0 mm 3 mps 749 mmHg 72%
    05:00 +16°C° 0 mm 3 mps 749 mmHg 73%
    06:00 +17°C° 0 mm 3 mps 748 mmHg 70%
    07:00 +18°C° 0 mm 3 mps 748 mmHg 66%
    08:00 +19°C° 0 mm 4 mps 748 mmHg 63%
    09:00 +19°C° 0.1 mm 4 mps 748 mmHg 64%
    10:00 +19°C° 0.1 mm 3 mps 748 mmHg 66%
    11:00 +19°C° 0.1 mm 3 mps 748 mmHg 67%
    12:00 +19°C° 0.3 mm 3 mps 747 mmHg 70%
    13:00 +19°C° 0.3 mm 3 mps 747 mmHg 73%
    14:00 +19°C° 0.3 mm 3 mps 746 mmHg 76%
    15:00 +19°C° 0 mm 3 mps 746 mmHg 76%
    16:00 +19°C° 0 mm 3 mps 746 mmHg 75%
    17:00 +20°C° 0 mm 3 mps 746 mmHg 74%
    18:00 +19°C° 0.5 mm 3 mps 746 mmHg 77%
    19:00 +18°C° 0.5 mm 3 mps 746 mmHg 80%
    20:00 +17°C° 0.5 mm 2 mps 746 mmHg 84%
    21:00 +17°C° 0 mm 2 mps 745 mmHg 84%
    22:00 +16°C° 0 mm 2 mps 745 mmHg 85%
    23:00 +16°C° 0 mm 2 mps 745 mmHg 85%

    23 May, Thursday

    Time Temperature Precipitation Wind Pressure Humidity
    00:00 +15°C° 0 mm 2 mps 745 mmHg 87%
    01:00 +15°C° 0 mm 2 mps 744 mmHg 89%
    02:00 +14°C° 0 mm 2 mps 744 mmHg 91%
    03:00 +15°C° 0.1 mm 2 mps 744 mmHg 91%
    04:00 +15°C° 0.1 mm 2 mps 744 mmHg 91%
    05:00 +15°C° 0.1 mm 1 mps 743 mmHg 92%
    06:00 +16°C° 0 mm 2 mps 743 mmHg 89%
    07:00 +17°C° 0 mm 2 mps 743 mmHg 86%
    08:00 +18°C° 0 mm 2 mps 743 mmHg 83%
    09:00 +19°C° 0 mm 2 mps 743 mmHg 76%
    10:00 +21°C° 0 mm 2 mps 743 mmHg 68%
    11:00 +23°C° 0 mm 2 mps 743 mmHg 61%
    12:00 +24°C° 0.1 mm 2 mps 743 mmHg 57%
    13:00 +25°C° 0.1 mm 2 mps 742 mmHg 54%
    14:00 +25°C° 0.1 mm 2 mps 742 mmHg 50%
    15:00 +25°C° 0.5 mm 2 mps 742 mmHg 52%
    16:00 +25°C° 0.5 mm 1 mps 742 mmHg 55%
    17:00 +24°C° 0.5 mm 1 mps 742 mmHg 57%
    18:00 +23°C° 0 mm 1 mps 742 mmHg 63%
    19:00 +21°C° 0 mm 1 mps 742 mmHg 69%
    20:00 +18°C° 0 mm 2 mps 742 mmHg 75%
    21:00 +19°C° 0.3 mm 1 mps 742 mmHg 78%
    22:00 +18°C° 0.3 mm 1 mps 742 mmHg 82%
    23:00 +18°C° 0.3 mm 1 mps 742 mmHg 85%

    24 May, Friday

    Time Temperature Precipitation Wind Pressure Humidity
    00:00 +16°C° 0.2 mm 1 mps 742 mmHg 86%
    01:00 +16°C° 0.2 mm 1 mps 742 mmHg 87%
    02:00 +16°C° 0.2 mm 2 mps 742 mmHg 88%
    03:00 +16°C° 0 mm 1 mps 743 mmHg 87%
    04:00 +16°C° 0 mm 1 mps 743 mmHg 87%
    05:00 +16°C° 0 mm 1 mps 743 mmHg 87%
    06:00 +19°C° 0 mm 1 mps 743 mmHg 81%
    07:00 +21°C° 0 mm 1 mps 743 mmHg 75%
    08:00 +22°C° 0 mm 1 mps 743 mmHg 68%
    09:00 +23°C° 0 mm 2 mps 743 mmHg 63%
    10:00 +25°C° 0 mm 2 mps 743 mmHg 58%
    11:00 +26°C° 0 mm 3 mps 743 mmHg 53%
    12:00 +26°C° 0.3 mm 3 mps 743 mmHg 54%
    13:00 +26°C° 0.3 mm 3 mps 743 mmHg 54%
    14:00 +26°C° 0.3 mm 4 mps 742 mmHg 54%
    15:00 +26°C° 0.3 mm 3 mps 742 mmHg 57%
    16:00 +26°C° 0.3 mm 3 mps 742 mmHg 60%
    17:00 +25°C° 0.3 mm 3 mps 742 mmHg 62%
    18:00 +24°C° 0.1 mm 3 mps 742 mmHg 67%
    19:00 +21°C° 0.1 mm 2 mps 742 mmHg 72%
    20:00 +19°C° 0.1 mm 2 mps 742 mmHg 77%
    21:00 +19°C° 0 mm 2 mps 742 mmHg 79%
    22:00 +18°C° 0 mm 2 mps 742 mmHg 80%
    23:00 +18°C° 0 mm 3 mps 742 mmHg 82%
    Show more